Location: Edmonton
(53.5500°N, 113.5000°W)
Time: 21:41:14
(UTC-07:00)

N. Korean satellite - Pass Details

Date: 22 October 2019
Orbit: 456 x 506 km, 97.2° (Epoch: 14 November)

Event Time Altitude Azimuth Distance (km) Brightness Sun altitude
Rises 19:34:59 0° 206° (SSW) 2,471 10.6 -11.5°
Reaches altitude 10° 19:37:35 10° 228° (SW) 1,608 10.0 -11.9°
Maximum altitude 19:39:51 17° 270° (W) 1,270 10.0 -12.2°
Drops below altitude 10° 19:42:09 10° 311° (NW) 1,630 9.9 -12.5°
Sets 19:44:49 0° 333° (NNW) 2,522 10.6 -12.9°
